Aleppo, Pennsylvania
Current Conditions -  °F | °C
As of 3:15 PM on Friday 21 Nov 2014 (Local Time) from KAFJ Reporting Station
Clear Clear  
Wind Chill: 20°   Ceiling: Unl
Heat Index: 28°   Visibility: 10mi
Dew Point:   Wind: 9mph
Humidity: 43%   Direction: 260°W
Pressure: 30.47"   Gusts: NA
Location:  39.82°N, 80.45°W
Report Text: KAFJ 212015Z 26008KT 220V280 10SM CLR M02/M13 A3047 RMK AO1
Loading
Personal Weather Stations






























Interactive Weather Map New forecast layout! Learn more

10-Day Weather Forecast

Advertisements
Track Severe Weather on mobile